When you browse on this site, cookies collect data to enhance your experience and personalize the content and advertising you see.
Visit our Privacy Policy to learn more. By continuing to use the site, you agree to this use of cookies and data.
  • In Belgien
  • Länderverzeichnis
  • Für 7 Tage
  • Wassertemperatur
  • Satellitenkarten
  • Wetterkarte
  • Widgets
  • user-avatar
    Anmelden

    Stündliche Wetter Zhitischi

    Heute, 22 März, Freitag

    Zeit Temperatur Niederschläge Wind Luftdruck Luftfeuchtigkeit
    00:00 -1°C° 0 mm 3 m/S 744 mmHg 93%
    01:00 -1°C° 0 mm 3 m/S 743 mmHg 93%
    02:00 -1°C° 0 mm 3 m/S 743 mmHg 93%
    03:00 -2°C° 0.3 mm 4 m/S 741 mmHg 93%
    04:00 -1°C° 0.3 mm 4 m/S 740 mmHg 93%
    05:00 -1°C° 0.3 mm 4 m/S 739 mmHg 92%
    06:00 -1°C° 1.1 mm 4 m/S 738 mmHg 92%
    07:00 -1°C° 1.1 mm 4 m/S 737 mmHg 92%
    08:00 -1°C° 1.1 mm 4 m/S 737 mmHg 92%
    09:00 -1°C° 0.8 mm 5 m/S 737 mmHg 90%
    10:00 -2°C° 0.8 mm 6 m/S 737 mmHg 87%
    11:00 -2°C° 0.8 mm 7 m/S 737 mmHg 84%
    12:00 -2°C° 0.1 mm 7 m/S 738 mmHg 82%
    13:00 -2°C° 0.1 mm 7 m/S 739 mmHg 79%
    14:00 -2°C° 0.1 mm 7 m/S 739 mmHg 77%
    15:00 -2°C° 0 mm 6 m/S 740 mmHg 78%
    16:00 -3°C° 0 mm 6 m/S 740 mmHg 79%
    17:00 -3°C° 0 mm 6 m/S 741 mmHg 79%
    18:00 -2°C° 0 mm 5 m/S 741 mmHg 81%
    19:00 -2°C° 0 mm 5 m/S 742 mmHg 83%
    20:00 -2°C° 0 mm 5 m/S 742 mmHg 85%
    21:00 -2°C° 0 mm 5 m/S 743 mmHg 86%
    22:00 -2°C° 0 mm 5 m/S 744 mmHg 87%
    23:00 -1°C° 0 mm 5 m/S 744 mmHg 88%

    Morgen, 23 März, Samstag

    Zeit Temperatur Niederschläge Wind Luftdruck Luftfeuchtigkeit
    00:00 -2°C° 0.1 mm 5 m/S 745 mmHg 89%
    01:00 -2°C° 0.1 mm 5 m/S 746 mmHg 89%
    02:00 -2°C° 0.1 mm 5 m/S 747 mmHg 90%
    03:00 -2°C° 0 mm 4 m/S 748 mmHg 91%
    04:00 -1°C° 0 mm 3 m/S 748 mmHg 93%
    05:00 -2°C° 0 mm 3 m/S 749 mmHg 94%
    06:00 -1°C° 0 mm 2 m/S 750 mmHg 95%
    07:00 -1°C° 0 mm 2 m/S 750 mmHg 95%
    08:00 -1°C° 0 mm 2 m/S 751 mmHg 96%
    09:00 +1°C° 0 mm 2 m/S 751 mmHg 95%
    10:00 +2°C° 0 mm 1 m/S 751 mmHg 95%
    11:00 +2°C° 0 mm 1 m/S 751 mmHg 95%
    12:00 +2°C° 0 mm 1 m/S 751 mmHg 94%
    13:00 +3°C° 0 mm 1 m/S 751 mmHg 92%
    14:00 +2°C° 0 mm 0 m/S 750 mmHg 91%
    15:00 +3°C° 0 mm 1 m/S 750 mmHg 91%
    16:00 +2°C° 0 mm 1 m/S 749 mmHg 90%
    17:00 +1°C° 0 mm 2 m/S 749 mmHg 90%
    18:00 +1°C° 0 mm 2 m/S 749 mmHg 89%
    19:00 0°C° 0 mm 3 m/S 748 mmHg 89%
    20:00 0°C° 0 mm 3 m/S 748 mmHg 88%
    21:00 -1°C° 0 mm 4 m/S 747 mmHg 87%
    22:00 -2°C° 0 mm 4 m/S 747 mmHg 87%
    23:00 -2°C° 0 mm 4 m/S 746 mmHg 86%

    übermorgen, 24 März, Sonntag

    Zeit Temperatur Niederschläge Wind Luftdruck Luftfeuchtigkeit
    00:00 -2°C° 0 mm 4 m/S 745 mmHg 86%
    01:00 -2°C° 0 mm 5 m/S 744 mmHg 86%
    02:00 -2°C° 0 mm 5 m/S 743 mmHg 86%
    03:00 -2°C° 0.5 mm 5 m/S 743 mmHg 87%
    04:00 -2°C° 0.5 mm 4 m/S 742 mmHg 89%
    05:00 -2°C° 0.5 mm 4 m/S 741 mmHg 91%
    06:00 -1°C° 0.2 mm 4 m/S 741 mmHg 92%
    07:00 -1°C° 0.2 mm 4 m/S 741 mmHg 92%
    08:00 0°C° 0.2 mm 3 m/S 740 mmHg 93%
    09:00 +1°C° 0 mm 3 m/S 740 mmHg 90%
    10:00 +2°C° 0 mm 3 m/S 740 mmHg 88%
    11:00 +3°C° 0 mm 3 m/S 740 mmHg 86%
    12:00 +2°C° 0.3 mm 3 m/S 740 mmHg 83%
    13:00 +2°C° 0.3 mm 3 m/S 739 mmHg 80%
    14:00 +1°C° 0.3 mm 4 m/S 739 mmHg 78%
    15:00 +1°C° 0.1 mm 3 m/S 739 mmHg 79%
    16:00 +1°C° 0.1 mm 3 m/S 739 mmHg 80%
    17:00 0°C° 0.1 mm 3 m/S 739 mmHg 81%
    18:00 -1°C° 0 mm 3 m/S 740 mmHg 83%
    19:00 -1°C° 0 mm 3 m/S 740 mmHg 85%
    20:00 -2°C° 0 mm 3 m/S 740 mmHg 86%
    21:00 -4°C° 0 mm 3 m/S 740 mmHg 87%
    22:00 -4°C° 0 mm 3 m/S 740 mmHg 88%
    23:00 -4°C° 0 mm 3 m/S 740 mmHg 88%

    25 März, Montag

    Zeit Temperatur Niederschläge Wind Luftdruck Luftfeuchtigkeit
    00:00 -4°C° 0 mm 3 m/S 740 mmHg 88%
    01:00 -5°C° 0 mm 3 m/S 740 mmHg 88%
    02:00 -5°C° 0 mm 3 m/S 740 mmHg 88%
    03:00 -5°C° 0 mm 3 m/S 740 mmHg 89%
    04:00 -5°C° 0 mm 3 m/S 740 mmHg 90%
    05:00 -5°C° 0 mm 3 m/S 740 mmHg 90%
    06:00 -4°C° 0 mm 4 m/S 740 mmHg 87%
    07:00 -4°C° 0 mm 4 m/S 740 mmHg 83%
    08:00 -3°C° 0 mm 4 m/S 740 mmHg 80%
    09:00 -2°C° 0 mm 4 m/S 740 mmHg 77%
    10:00 -2°C° 0 mm 4 m/S 741 mmHg 74%
    11:00 -1°C° 0 mm 4 m/S 741 mmHg 72%
    12:00 -1°C° 0 mm 4 m/S 741 mmHg 71%
    13:00 -1°C° 0 mm 4 m/S 741 mmHg 70%
    14:00 0°C° 0 mm 3 m/S 741 mmHg 69%
    15:00 0°C° 0 mm 3 m/S 741 mmHg 72%
    16:00 +1°C° 0 mm 2 m/S 741 mmHg 74%
    17:00 +2°C° 0 mm 1 m/S 740 mmHg 77%
    18:00 +1°C° 0 mm 1 m/S 740 mmHg 81%
    19:00 0°C° 0 mm 1 m/S 740 mmHg 84%
    20:00 0°C° 0 mm 1 m/S 740 mmHg 88%
    21:00 -2°C° 0.7 mm 2 m/S 740 mmHg 89%
    22:00 -2°C° 0.7 mm 2 m/S 740 mmHg 89%
    23:00 -2°C° 0.7 mm 3 m/S 740 mmHg 90%

    26 März, Dienstag

    Zeit Temperatur Niederschläge Wind Luftdruck Luftfeuchtigkeit
    00:00 -2°C° 0.5 mm 3 m/S 740 mmHg 91%
    01:00 -2°C° 0.5 mm 3 m/S 740 mmHg 91%
    02:00 -4°C° 0.5 mm 3 m/S 740 mmHg 92%
    03:00 -4°C° 0.1 mm 3 m/S 740 mmHg 90%
    04:00 -5°C° 0.1 mm 3 m/S 741 mmHg 89%
    05:00 -6°C° 0.1 mm 3 m/S 741 mmHg 87%
    06:00 -6°C° 0 mm 3 m/S 742 mmHg 85%
    07:00 -5°C° 0 mm 3 m/S 742 mmHg 83%
    08:00 -5°C° 0 mm 3 m/S 743 mmHg 82%
    09:00 -5°C° 0 mm 3 m/S 743 mmHg 77%
    10:00 -4°C° 0 mm 3 m/S 743 mmHg 72%
    11:00 -2°C° 0 mm 3 m/S 743 mmHg 67%
    12:00 -2°C° 0 mm 3 m/S 743 mmHg 65%
    13:00 -1°C° 0 mm 3 m/S 743 mmHg 63%
    14:00 -1°C° 0 mm 3 m/S 743 mmHg 61%
    15:00 -1°C° 0 mm 2 m/S 742 mmHg 64%
    16:00 -1°C° 0 mm 2 m/S 742 mmHg 67%
    17:00 0°C° 0 mm 1 m/S 741 mmHg 70%
    18:00 -2°C° 0 mm 2 m/S 741 mmHg 72%
    19:00 -2°C° 0 mm 2 m/S 740 mmHg 74%
    20:00 -4°C° 0 mm 3 m/S 740 mmHg 76%
    21:00 -4°C° 0.4 mm 3 m/S 739 mmHg 81%
    22:00 -4°C° 0.4 mm 4 m/S 739 mmHg 86%
    23:00 -4°C° 0.4 mm 4 m/S 738 mmHg 91%

    27 März, Mittwoch

    Zeit Temperatur Niederschläge Wind Luftdruck Luftfeuchtigkeit
    00:00 -4°C° 0.3 mm 4 m/S 738 mmHg 90%
    01:00 -4°C° 0.3 mm 3 m/S 737 mmHg 90%
    02:00 -4°C° 0.3 mm 3 m/S 737 mmHg 90%
    03:00 -5°C° 0 mm 3 m/S 737 mmHg 90%
    04:00 -5°C° 0 mm 3 m/S 737 mmHg 91%
    05:00 -6°C° 0 mm 3 m/S 737 mmHg 92%
    06:00 -5°C° 0.1 mm 3 m/S 738 mmHg 89%
    07:00 -5°C° 0.1 mm 4 m/S 738 mmHg 86%
    08:00 -5°C° 0.1 mm 4 m/S 738 mmHg 82%
    09:00 -4°C° 0.2 mm 4 m/S 739 mmHg 83%
    10:00 -3°C° 0.2 mm 4 m/S 740 mmHg 84%
    11:00 -3°C° 0.2 mm 4 m/S 741 mmHg 84%
    12:00 -2°C° 0.1 mm 4 m/S 742 mmHg 82%
    13:00 -2°C° 0.1 mm 4 m/S 742 mmHg 79%
    14:00 -2°C° 0.1 mm 5 m/S 743 mmHg 77%
    15:00 -2°C° 0 mm 4 m/S 744 mmHg 78%
    16:00 -2°C° 0 mm 4 m/S 745 mmHg 79%
    17:00 -2°C° 0 mm 3 m/S 746 mmHg 80%
    18:00 -2°C° 0 mm 3 m/S 747 mmHg 83%
    19:00 -4°C° 0 mm 3 m/S 748 mmHg 87%
    20:00 -4°C° 0 mm 2 m/S 748 mmHg 90%
    21:00 -5°C° 0 mm 2 m/S 749 mmHg 90%
    22:00 -5°C° 0 mm 2 m/S 749 mmHg 90%
    23:00 -6°C° 0 mm 2 m/S 750 mmHg 90%
    Mehr zeigen